GFSGL_500_rhum_132.txt.gz
RH
65 46 44 74 100 100 99 97 96 76 26 7 4 14 39 52 53 62 62 65 68 69 80 84 64 43 37 29 50 60 85 79 73 98 95 85 94 97 94 68 35 38 68
62 49 64 97 99 100 100 100 96 95 78 32 14 10 8 12 22 33 46 53 56 61 69 69 72 66 58 55 51 50 41 42 69 57 72 92 96 97 96 42 25 30 42
83 84 94 100 100 100 92 76 78 53 51 49 35 26 15 12 11 10 15 34 43 47 48 54 62 65 64 61 57 64 58 53 49 51 53 85 92 94 96 89 56 50 54
91 100 100 100 100 100 100 100 100 100 100 99 75 71 84 93 85 80 64 46 35 25 19 25 37 53 60 64 63 58 60 63 58 56 53 55 64 89 95 96 94 89 96
100 100 100 100 100 100 100 99 100 100 100 100 100 100 100 92 82 74 75 64 62 56 45 44 27 12 17 48 61 61 59 52 54 57 52 50 46 63 88 83 91 98 96
100 100 100 100 100 100 100 100 100 100 100 100 100 100 100 86 84 98 82 77 67 75 34 44 62 75 45 14 13 37 50 52 62 60 54 59 56 57 57 90 96 97 97
90 87 56 76 77 84 97 99 100 100 100 100 100 98 98 96 85 79 80 90 86 92 70 40 65 89 92 85 52 14 13 30 37 42 46 47 51 60 57 86 95 96 90
14 17 18 17 15 14 12 11 16 40 60 78 96 100 100 100 100 95 89 91 90 94 96 95 57 72 85 87 77 62 31 12 25 34 29 40 57 51 48 75 67 82 67
17 18 17 16 15 14 14 14 13 12 11 10 10 12 18 52 76 91 99 100 100 99 100 100 90 34 36 36 24 27 31 22 14 17 30 38 43 24 25 75 97 100 82
20 19 18 18 17 17 14 14 13 12 12 11 10 10 9 9 10 14 25 50 78 94 100 100 100 100 100 100 65 92 39 32 25 16 14 17 16 26 21 81 63 85 99
28 27 20 19 18 17 18 18 16 14 12 12 12 12 14 14 13 13 13 12 12 13 32 76 98 100 100 100 100 100 100 91 70 100 100 86 86 70 66 63 98 82 97
32 27 19 15 17 18 17 21 20 20 16 14 13 13 13 14 14 15 14 14 14 14 13 13 14 46 90 83 97 99 100 100 100 100 100 100 100 100 100 100 100 94 98
23 22 16 16 19 25 27 27 26 23 22 21 19 17 15 14 14 14 16 16 15 16 15 14 13 13 13 16 26 54 75 84 97 99 100 100 100 100 100 100 97 98 100
19 16 19 29 28 30 28 26 26 24 24 24 22 19 15 14 14 15 16 16 16 16 15 14 15 16 15 15 13 12 12 16 19 49 74 82 92 98 100 100 100 100 98
18 19 30 36 28 26 26 28 26 26 27 21 15 14 13 12 13 13 15 15 16 15 15 14 14 14 13 13 13 13 12 11 10 10 9 10 22 44 44 62 87 84 62
27 26 27 34 32 28 35 47 42 32 19 18 17 14 13 12 11 12 11 10 10 10 10 10 10 11 12 13 13 12 12 12 12 11 10 8 7 7 7 7 8 11 16
38 32 32 37 38 42 60 55 29 18 21 23 20 18 18 16 14 12 11 13 16 17 16 14 11 9 8 7 8 10 10 10 10 10 10 9 9 7 6 6 5 5 4
50 40 39 46 56 63 63 42 24 21 22 25 25 25 24 22 20 19 18 19 19 20 19 16 12 9 8 7 7 7 6 8 8 8 8 8 8 7 7 6 6 5 5
63 46 44 66 74 60 53 39 29 21 24 28 28 26 25 24 24 25 24 23 24 26 22 17 10 9 9 8 7 7 7 6 6 6 7 7 7 7 7 6 6 6 5
68 55 59 76 56 55 48 36 35 35 39 40 40 38 33 29 28 27 29 29 34 31 18 14 12 13 21 24 24 21 18 16 15 12 10 9 8 8 7 6 6 5 5
85 77 83 59 59 51 42 42 44 49 51 53 57 50 42 38 37 40 41 40 33 20 18 27 38 37 31 25 21 18 15 13 11 10 8 8 7 7 6 5 5 5 5
97 89 68 65 50 47 48 60 72 66 66 71 66 61 57 53 47 34 25 23 28 38 42 42 41 37 29 23 18 14 12 11 11 10 10 9 8 7 7 6 5 5 5
100 88 75 54 52 62 81 88 85 82 80 75 73 60 43 31 30 36 39 43 46 48 50 46 38 31 23 18 16 14 12 10 8 7 6 6 6 6 6 6 6 6 6
100 95 81 82 94 98 95 88 84 82 76 58 42 32 34 45 46 44 50 55 55 51 42 36 29 23 17 12 8 6 6 7 9 10 10 12 12 12 12 12 13 13 13
100 100 100 100 100 96 89 86 78 62 49 52 54 54 51 48 55 60 60 59 52 45 36 26 16 9 7 9 13 17 18 18 17 16 14 13 12 11 10 10 11 11 12
100 100 100 98 97 95 84 70 57 58 64 65 60 54 62 69 66 64 59 54 43 27 14 9 10 15 20 23 23 22 21 18 15 14 13 14 14 13 12 11 11 12 15

GFSGL_500_rhum_135.txt.gz
RH
89 77 55 42 48 90 99 100 98 98 100 100 57 11 5 26 31 31 38 44 42 46 58 46 32 27 58 59 33 46 47 95 96 98 98 97 97 96 97 96 80 99 97
92 81 71 59 94 96 100 100 100 85 73 94 69 30 13 8 6 16 30 46 54 64 66 72 71 45 71 72 66 40 50 90 96 96 98 95 95 95 97 92 79 84 100
93 95 95 96 100 100 100 100 93 93 98 93 71 38 26 22 15 11 13 14 54 67 74 78 78 76 72 75 81 85 76 64 69 89 91 86 89 71 77 65 78 95 99
100 100 100 100 100 100 100 100 100 100 100 100 94 73 73 78 94 96 65 27 17 29 41 57 74 71 69 69 70 71 74 80 82 71 69 60 77 62 54 51 70 96 98
100 100 100 100 100 100 100 100 100 100 100 100 100 100 100 100 100 100 100 99 98 83 66 48 36 29 35 53 66 68 65 65 71 70 68 71 71 70 60 55 57 64 77
100 93 86 83 93 90 90 96 99 100 100 100 100 99 99 100 100 100 100 100 100 100 100 94 73 49 45 42 27 21 47 66 66 63 79 73 62 61 59 55 63 54 58
98 64 29 20 16 13 13 12 13 15 22 45 64 84 98 100 100 97 94 99 99 100 96 92 88 65 43 40 72 67 31 16 25 46 58 63 68 68 62 59 60 53 48
36 28 18 18 17 14 14 14 12 12 11 10 10 10 10 17 52 81 98 96 97 87 84 100 100 91 73 54 63 75 98 75 53 30 24 31 35 45 56 67 66 60 58
24 22 20 18 18 17 16 14 13 13 13 12 11 11 11 11 11 11 13 22 45 80 100 100 100 100 99 83 53 84 95 97 97 92 60 26 17 21 24 30 35 39 42
22 25 24 22 19 17 16 15 14 13 13 13 12 12 12 11 11 10 10 11 11 13 22 30 44 100 100 96 99 92 46 61 44 46 56 50 34 19 15 20 33 19 26
22 27 31 24 20 18 17 19 19 19 18 19 19 18 16 15 14 13 12 11 11 12 12 13 13 13 22 51 85 98 98 100 100 100 95 46 30 35 34 16 18 19 19
24 24 29 27 20 18 20 25 28 27 27 28 24 18 13 12 11 10 10 10 11 12 12 14 14 15 15 14 15 19 53 82 95 100 100 100 100 92 66 95 38 76 17
29 27 24 23 21 20 23 28 27 28 27 26 22 14 12 11 10 10 9 8 8 8 10 11 14 14 14 14 14 15 15 15 20 62 90 96 100 100 100 100 100 100 42
22 26 21 17 24 35 30 28 30 35 35 29 19 15 18 16 14 13 13 12 10 9 10 10 11 12 12 12 13 13 14 14 14 15 17 52 65 84 94 97 98 100 100
22 20 18 20 22 39 38 36 34 41 36 22 16 22 23 20 20 20 20 18 16 13 11 11 12 13 15 15 14 10 9 10 11 12 12 13 14 17 47 70 92 85 93
24 26 26 29 32 31 40 46 42 49 45 27 18 20 22 23 23 23 24 24 22 20 19 19 19 19 19 22 22 19 10 8 7 7 8 10 11 11 12 12 18 48 56
32 38 47 52 52 46 44 50 61 61 51 34 24 20 17 20 23 25 26 27 24 22 20 20 22 24 27 26 23 16 12 9 8 6 6 6 7 9 10 10 10 10 10
62 61 71 77 71 62 56 62 73 58 46 39 28 22 23 32 38 36 36 36 32 29 29 28 27 25 24 24 20 14 11 10 8 7 6 6 6 6 6 8 8 8 8
77 91 93 91 90 77 64 68 80 67 62 44 33 36 45 48 48 44 35 30 28 26 25 29 29 25 19 15 14 12 15 19 23 23 22 20 15 10 8 7 6 7 7
100 100 100 100 95 88 82 78 76 72 62 43 45 56 52 50 47 44 38 34 33 28 22 17 16 20 25 27 28 26 21 19 18 16 15 14 13 12 12 12 12 11 9
100 100 100 98 98 96 92 84 77 70 56 63 73 65 56 52 49 46 40 30 21 17 24 30 31 30 31 30 27 22 18 16 13 12 11 11 11 10 10 9 9 9 9
100 100 100 100 99 96 94 90 92 87 80 75 68 64 63 60 51 37 24 20 26 32 34 37 42 40 33 27 22 18 16 15 14 13 12 10 9 9 9 9 9 8 8
100 100 100 100 100 98 97 98 96 89 82 80 73 69 58 45 33 29 33 36 38 38 45 48 44 36 29 22 18 15 13 10 7 5 5 5 5 5 6 5 5 5 5
100 100 100 100 100 100 98 95 90 89 85 76 66 55 48 41 40 43 43 42 46 53 52 44 38 29 20 13 9 7 6 7 11 14 15 16 17 17 16 14 13 12 12
100 100 100 100 100 97 94 94 96 89 75 64 58 48 43 49 52 49 50 56 59 56 48 37 22 11 8 8 11 16 21 22 23 23 22 19 17 15 14 13 12 12 11
100 100 100 100 97 95 99 97 88 72 65 58 46 41 58 61 58 62 64 65 58 44 26 12 9 11 17 24 25 27 28 29 26 22 18 17 16 16 16 16 16 16 16

GFSGL_500_rhum_138.txt.gz
RH
93 68 67 60 57 72 88 97 95 91 73 76 99 100 73 49 23 19 13 6 5 5 10 19 31 22 18 18 31 27 49 40 46 63 62 95 97 97 97 94 96 95 98
100 95 81 85 94 100 93 91 96 93 96 100 93 37 35 43 28 12 16 24 28 33 38 36 39 40 38 36 54 44 80 97 72 73 59 61 96 98 97 97 96 96 95
100 100 99 100 100 100 100 99 98 95 100 100 84 73 57 33 24 19 13 9 14 17 33 43 45 44 44 54 68 63 54 98 91 80 98 97 98 97 98 98 97 97 99
100 100 100 100 100 100 100 100 100 100 100 100 100 91 91 83 63 42 34 22 20 39 22 25 51 61 74 70 77 81 79 77 86 60 98 98 96 98 98 96 97 96 96
100 99 98 100 98 83 92 92 98 100 100 100 100 100 100 100 100 100 100 96 62 36 30 38 94 92 60 93 86 86 75 75 87 76 85 98 94 95 94 94 97 98 95
98 96 80 35 28 20 17 17 18 21 26 45 66 92 98 100 100 100 100 100 100 100 100 85 92 96 86 96 98 97 87 74 89 71 72 77 86 90 95 96 99 99 92
91 81 50 24 20 18 16 15 15 13 12 13 13 12 14 20 47 62 84 99 100 100 100 100 100 100 88 68 58 51 50 53 68 70 66 65 61 84 90 91 93 94 92
95 33 26 24 20 19 16 15 14 13 13 13 13 12 12 12 10 10 11 14 50 91 99 98 99 100 97 87 72 59 52 62 60 44 35 39 48 70 63 78 86 82 73
34 46 26 24 21 19 18 15 14 14 14 13 14 14 14 13 12 11 10 10 9 10 11 18 43 57 80 82 84 83 56 62 100 100 91 87 59 24 28 42 51 53 79
31 27 24 27 26 21 18 18 17 19 20 23 22 17 11 9 8 8 8 8 8 8 9 9 10 11 15 21 46 78 81 94 75 74 97 100 100 97 76 32 23 36 78
31 28 22 23 28 23 20 20 22 26 26 28 22 10 9 8 8 7 7 6 6 6 5 5 6 6 8 11 12 13 15 29 53 92 100 94 85 85 80 88 77 38 33
32 33 26 25 24 20 20 21 25 29 27 26 19 12 12 12 10 10 10 10 10 10 8 7 6 6 6 8 9 11 13 13 13 14 34 45 52 96 100 98 87 56 39
36 36 37 32 24 18 22 32 33 28 28 28 20 16 13 14 14 15 16 17 17 16 15 12 10 10 10 9 8 8 10 11 11 12 12 13 17 22 30 60 100 100 100
35 37 37 32 26 19 20 29 44 42 37 32 29 21 14 13 14 16 18 20 21 20 17 13 12 12 12 12 12 10 10 9 9 10 11 10 10 11 13 16 18 24 85
31 34 32 30 22 22 25 31 35 38 44 44 40 36 25 17 16 16 16 19 24 27 24 19 15 13 14 14 13 12 11 11 10 11 14 14 10 7 7 8 10 12 13
29 26 24 26 28 32 42 50 49 48 47 52 53 42 36 29 22 21 24 32 37 36 33 29 26 24 22 20 17 15 14 12 12 15 16 17 16 12 9 7 6 6 8
52 44 35 38 39 41 54 62 67 68 61 58 56 51 46 42 34 33 40 38 32 31 31 31 30 28 28 23 18 15 14 14 16 16 15 14 13 11 10 9 8 6 6
87 52 36 39 47 48 68 80 83 82 76 67 61 61 58 56 44 41 41 38 35 30 26 25 24 25 24 21 18 14 12 11 12 13 15 15 13 11 9 8 8 7 6
100 100 95 87 76 82 96 95 94 94 84 78 76 70 64 56 53 53 53 49 42 34 32 33 31 26 22 17 13 14 20 23 22 22 21 20 18 16 15 14 13 14 14
100 100 100 100 100 100 100 100 99 96 92 86 81 74 72 71 63 55 49 46 44 42 39 32 24 19 14 16 24 24 22 24 23 20 18 17 16 15 14 12 11 10 10
100 100 100 100 100 100 100 100 100 100 99 98 96 92 85 69 58 56 56 52 48 40 30 20 15 16 26 34 31 29 27 24 22 20 18 17 15 13 12 11 10 10 9
100 100 100 100 100 100 100 100 100 100 100 100 96 83 72 66 66 62 56 49 41 29 18 19 26 34 40 37 34 31 27 24 21 18 15 13 11 9 7 6 6 5 5
100 100 100 100 100 100 100 100 100 100 98 92 82 75 77 76 69 59 50 37 27 22 27 35 44 44 40 36 32 27 22 16 11 9 7 7 8 9 10 11 10 10 10
100 100 100 100 100 100 100 100 100 96 90 85 87 87 80 69 61 52 45 38 34 39 50 51 47 42 38 30 21 13 9 8 10 14 16 18 20 20 20 19 19 18 16
100 100 100 100 100 100 100 100 95 91 93 93 92 80 71 67 61 53 45 44 53 59 55 50 44 34 22 13 10 10 14 18 20 20 21 24 25 23 20 17 15 14 13
100 100 100 100 100 100 99 96 99 99 98 94 84 80 74 65 57 52 54 65 65 59 52 41 24 14 11 12 15 20 24 22 22 28 29 25 20 18 17 17 18 18 17

GFSGL_500_rhum_141.txt.gz
RH
85 95 94 95 86 80 81 84 100 99 100 100 98 87 100 100 85 88 35 37 53 58 49 18 17 21 22 22 22 26 25 18 12 21 94 55 55 56 44 45 55 96 95
96 100 100 100 100 95 95 100 100 100 98 97 100 65 38 46 58 69 60 27 22 25 22 14 8 6 7 12 25 31 30 31 20 16 93 70 52 56 93 50 47 82 96
96 100 100 100 100 100 100 100 100 100 98 100 98 93 100 100 81 54 38 35 27 18 15 18 24 28 20 18 23 30 29 29 23 18 60 98 99 69 68 79 68 65 90
100 100 100 100 99 99 100 100 100 100 100 100 100 100 100 100 100 99 84 57 37 34 27 23 25 18 32 41 40 40 34 30 37 35 35 66 91 97 72 82 67 83 95
100 99 97 95 53 37 37 38 53 88 97 91 99 100 100 100 100 100 100 100 97 64 42 38 28 35 24 83 60 42 46 45 42 44 38 98 99 99 99 100 99 95 97
100 95 70 71 30 20 18 17 16 15 16 32 23 19 23 37 65 94 100 100 100 100 100 100 73 48 56 80 100 79 91 72 59 67 65 85 98 99 98 99 98 99 96
99 96 94 42 24 21 20 17 16 16 14 12 12 12 12 12 12 12 14 42 85 99 100 100 100 100 100 100 100 100 98 95 99 88 82 81 79 90 99 99 99 98 98
87 61 47 27 25 21 19 17 15 15 14 14 14 14 13 12 11 11 10 9 9 10 21 58 97 97 98 100 100 100 100 100 100 99 92 96 93 98 99 100 97 73 95
100 70 36 28 24 23 21 18 18 18 19 20 20 16 10 8 8 7 6 6 5 5 5 5 6 8 25 29 49 75 92 100 99 81 94 87 81 77 74 88 83 67 60
57 50 72 41 26 24 23 22 23 24 24 25 27 13 10 9 7 6 5 5 5 5 6 5 4 4 4 4 4 4 9 20 46 80 80 78 94 97 84 88 96 86 62
71 38 34 31 25 22 20 18 21 24 26 28 27 22 11 9 8 7 7 7 6 7 6 6 6 5 5 6 6 5 5 5 4 3 4 22 42 77 73 73 78 84 93
100 59 34 34 30 27 24 20 24 33 36 30 27 24 15 12 12 11 11 10 10 11 12 13 12 10 8 8 7 7 7 7 7 6 6 6 5 4 4 13 31 49 79
96 58 37 36 34 34 32 22 19 28 42 43 36 27 17 12 11 12 13 13 13 14 17 20 20 19 17 15 13 12 11 9 8 7 6 6 5 6 6 7 8 8 14
91 55 38 37 40 40 34 24 20 24 33 39 37 36 30 23 21 17 15 14 14 16 18 22 23 21 20 18 17 16 15 13 10 8 8 9 10 8 7 8 7 8 9
96 62 39 40 40 37 32 22 24 34 46 48 44 45 45 39 34 25 19 16 17 20 28 28 22 20 18 18 16 15 13 12 11 9 9 11 14 14 12 9 8 9 10
100 83 56 37 36 37 30 27 31 42 52 59 61 61 59 55 52 46 38 34 33 33 33 28 29 29 25 22 18 16 15 13 11 12 14 14 13 11 9 9 9 8 10
100 100 88 64 44 39 32 38 48 57 53 64 76 78 78 74 71 64 55 49 42 42 40 36 35 32 30 27 24 21 17 15 15 15 13 11 9 9 10 14 18 16 10
100 100 100 96 95 99 86 61 65 85 58 79 86 89 86 83 75 68 62 61 58 62 56 50 44 38 33 30 28 25 23 21 18 15 12 10 15 22 19 19 20 21 20
100 100 100 100 99 99 96 92 94 95 96 98 99 95 93 94 90 88 86 81 76 66 55 47 40 37 36 34 33 30 24 19 16 13 13 29 29 26 25 23 22 20 19
100 100 100 100 100 100 99 98 100 100 99 99 99 100 100 100 100 98 90 80 70 63 56 50 47 44 39 34 29 24 19 16 16 23 29 28 24 22 20 18 17 16 16
100 100 100 100 100 100 100 100 100 100 100 100 100 98 96 96 94 88 78 72 71 65 58 53 47 41 36 31 26 23 22 26 31 31 26 24 22 20 19 18 15 14 12
100 100 100 100 100 100 100 100 100 100 100 100 98 100 94 91 87 80 77 76 69 64 59 51 45 38 32 27 28 36 38 36 33 30 25 20 17 13 10 8 7 6 6
100 100 100 100 100 100 100 100 100 100 99 95 96 96 96 93 87 85 82 76 70 63 53 46 38 31 30 40 49 45 40 34 26 19 14 10 8 8 8 10 11 12 14
100 100 100 100 100 100 100 100 100 99 99 100 99 98 97 95 92 91 83 75 64 55 48 41 38 45 53 52 47 41 29 18 12 10 10 10 12 15 18 19 20 20 20
100 100 100 100 100 100 100 100 98 100 100 100 100 99 99 99 95 88 78 66 58 51 47 48 55 56 53 46 32 17 12 11 12 12 14 17 22 25 26 25 21 17 16
100 100 100 100 100 100 100 100 100 100 100 100 100 100 100 96 89 79 67 56 53 56 63 63 60 52 36 19 12 13 14 14 17 24 29 29 26 21 19 19 20 22 24

GFSGL_500_rhum_144.txt.gz
RH
44 61 64 58 80 100 100 98 100 100 100 100 100 100 69 37 39 58 99 100 38 35 72 100 97 93 96 63 34 22 22 24 33 35 24 21 16 36 39 67 64 68 74
53 68 54 74 100 100 100 100 100 100 100 100 100 100 98 90 68 40 39 55 87 82 42 53 68 70 58 38 30 22 22 30 29 26 32 34 14 30 75 98 97 75 73
63 79 92 100 100 100 99 100 100 100 100 100 100 100 100 100 100 100 85 59 39 39 46 32 19 17 16 13 13 16 20 24 24 23 20 24 28 29 72 99 93 78 82
81 96 100 98 96 94 78 82 99 92 99 100 100 100 100 100 100 100 99 100 83 57 50 25 23 18 20 21 27 22 14 12 15 22 28 27 26 22 69 99 100 95 80
82 97 100 99 62 56 45 30 28 61 67 50 44 45 55 72 98 100 100 100 100 100 100 93 58 37 33 68 28 57 41 38 40 39 40 39 36 29 30 99 100 100 97
84 96 100 88 58 24 22 21 19 18 17 25 52 39 22 17 18 30 65 100 100 100 100 100 100 100 90 68 94 89 100 64 32 43 46 43 41 45 36 32 69 99 99
94 100 94 56 33 33 24 21 18 17 17 16 16 14 13 11 10 10 10 12 14 51 81 88 99 100 100 100 100 100 98 99 95 77 70 54 50 48 46 53 97 100 99
100 100 90 64 56 36 32 21 18 19 19 20 22 17 10 9 8 7 6 6 5 5 5 6 8 19 53 90 97 99 100 100 100 100 100 98 91 78 69 71 74 97 98
100 100 81 70 39 28 25 22 20 21 24 25 26 27 11 9 7 6 6 6 6 6 5 5 4 4 4 4 4 7 18 44 77 96 92 93 100 100 99 92 89 94 93
100 100 96 67 48 37 28 23 19 23 23 25 28 28 25 11 10 9 8 8 7 8 7 6 5 5 5 5 5 5 5 4 4 4 4 16 49 31 55 79 99 98 99
100 100 100 90 90 66 30 25 28 20 22 32 41 36 27 24 11 9 8 8 8 8 7 7 7 7 7 7 7 6 6 6 6 6 5 4 4 4 4 3 3 4 6
100 100 86 45 38 38 35 31 46 22 23 31 39 41 36 25 18 13 11 10 10 10 10 10 11 12 12 11 10 10 10 10 9 8 8 7 6 5 5 5 5 4 4
100 100 100 96 51 41 44 50 34 32 23 22 24 32 39 33 27 22 18 17 14 12 12 12 13 15 20 23 22 19 17 14 13 12 10 8 8 8 7 6 6 6 6
100 100 100 100 95 61 46 40 42 39 31 22 25 39 47 44 43 37 31 26 21 19 19 19 19 21 26 26 23 21 18 17 16 15 14 12 11 10 9 8 8 7 6
100 100 100 100 100 93 74 44 43 43 39 36 33 38 52 56 57 53 47 43 39 34 31 28 28 30 32 32 28 24 21 20 18 16 14 13 13 13 13 11 10 8 6
100 100 100 100 100 98 81 53 48 44 45 52 37 53 75 69 73 72 67 59 56 52 48 46 42 40 40 40 39 34 35 35 31 26 23 20 17 16 16 14 12 11 10
100 100 100 100 100 99 96 88 61 51 46 49 60 81 88 84 79 84 81 76 70 68 62 59 60 60 59 57 54 50 44 38 34 29 25 23 20 17 15 15 13 12 10
100 100 100 100 100 100 100 99 97 94 88 91 94 92 97 98 96 96 98 95 90 85 81 81 79 72 65 59 54 48 41 36 31 28 26 24 22 19 17 16 13 12 11
100 100 100 100 100 100 100 100 100 100 100 100 100 99 100 100 99 95 89 82 82 84 81 75 69 63 58 53 48 44 41 36 32 29 27 24 22 18 17 15 14 15 20
100 100 100 100 100 100 100 100 100 100 100 100 100 100 100 100 97 97 95 87 82 77 74 72 67 63 59 55 51 45 38 31 26 23 20 18 19 23 27 28 27 25 22
100 100 100 100 100 100 100 100 100 100 100 100 100 100 97 99 97 87 83 84 84 81 77 74 71 68 64 56 48 38 29 23 22 23 30 35 36 33 29 26 23 21 18
100 100 100 100 100 100 100 100 100 100 100 100 100 100 98 93 89 88 90 90 86 84 80 77 74 66 59 48 35 27 27 31 36 39 39 36 32 28 23 19 13 10 8
100 100 100 100 100 100 100 100 100 100 100 100 100 100 98 95 94 93 91 88 84 80 77 74 68 60 47 33 32 39 44 45 43 38 32 25 18 12 10 9 10 12 15
97 100 100 100 100 100 100 100 100 100 100 100 100 98 98 97 98 95 89 83 81 80 78 70 59 42 39 47 55 54 51 45 36 22 15 11 11 12 16 22 24 24 22
100 100 100 100 100 100 100 100 100 100 100 100 100 100 99 99 96 91 87 87 85 78 66 50 47 55 62 61 58 52 41 22 12 11 13 14 18 25 28 25 20 19 19
100 100 100 100 100 100 100 100 100 100 100 100 100 100 99 95 93 92 90 82 69 57 58 66 69 69 64 57 46 25 13 13 16 16 17 25 30 27 23 22 21 22 28

GFSGL_500_rhum_147.txt.gz
RH
19 36 53 38 53 49 77 100 100 100 100 100 100 100 100 100 96 78 48 63 86 51 30 38 95 100 68 54 60 61 56 16 5 24 31 29 31 17 15 18 28 38 31
27 53 58 59 75 100 98 100 100 100 100 100 100 100 100 100 100 100 100 74 37 42 44 48 56 84 100 98 76 77 84 44 10 14 22 28 32 41 28 17 19 32 34
40 56 64 71 94 100 97 89 96 97 96 100 100 100 100 100 100 100 100 100 92 54 39 40 32 47 68 84 88 78 72 56 44 27 22 23 28 42 47 47 46 50 85
59 76 76 87 100 98 78 51 40 70 93 54 67 71 85 96 100 95 98 100 100 100 90 73 52 24 20 20 20 18 15 15 16 22 24 26 32 40 41 46 51 56 100
75 84 86 97 100 70 63 72 48 21 19 32 60 32 24 29 44 95 100 100 100 100 100 99 92 83 41 53 70 29 49 44 28 19 16 20 27 35 40 39 34 41 76
84 88 94 89 93 37 27 28 24 21 18 17 16 14 12 10 10 11 23 44 94 95 100 100 100 100 99 94 89 92 81 89 90 56 35 33 26 25 24 26 33 35 38
88 94 98 97 81 78 39 38 22 19 19 21 24 24 10 9 8 7 6 6 6 6 9 22 58 91 100 100 100 100 100 94 92 96 55 39 43 47 47 47 48 45 42
100 100 100 100 92 73 73 40 25 22 21 24 27 28 26 11 9 8 7 6 5 5 5 5 5 4 7 18 33 58 60 68 71 91 100 99 97 90 68 52 50 46 46
100 100 100 100 92 51 33 30 24 20 22 32 26 28 28 24 12 10 9 8 8 7 6 5 5 5 5 5 4 4 4 4 4 4 5 14 53 88 97 98 100 86 70
100 100 100 100 100 89 60 47 50 23 22 40 22 35 42 38 23 15 11 11 9 8 8 8 8 7 7 7 6 6 6 6 6 6 6 5 5 4 4 15 16 30 55
97 100 100 100 100 93 95 61 45 31 32 29 26 37 39 39 35 26 18 12 10 10 10 10 11 11 12 12 13 14 12 10 10 10 9 8 8 7 6 6 6 6 6
98 100 100 100 100 100 100 100 84 44 39 81 51 23 26 28 36 38 31 22 15 11 10 11 12 12 12 13 15 18 21 22 20 17 14 14 13 12 10 9 8 8 8
100 100 100 100 100 100 81 52 45 45 51 73 40 30 22 23 36 45 47 41 33 27 22 19 19 17 16 18 18 21 24 25 23 21 19 18 16 15 14 12 11 10 9
93 100 100 100 100 100 100 98 60 56 64 54 45 43 37 51 50 42 50 57 58 52 44 36 31 27 26 25 23 26 28 30 30 29 25 21 20 22 22 22 20 17 15
63 96 100 100 100 100 100 100 100 96 90 82 60 47 46 58 87 70 84 92 82 76 66 58 51 51 47 46 45 45 44 41 38 38 37 37 38 39 37 32 27 24 21
32 79 100 100 100 100 100 100 100 100 100 97 78 59 57 51 50 65 79 92 99 96 87 77 68 64 60 56 56 58 61 62 60 57 53 49 44 39 36 33 29 26 23
22 61 100 100 100 100 100 100 100 100 100 100 96 91 85 79 66 65 90 99 96 95 92 84 74 68 66 68 65 60 58 56 54 50 48 44 40 35 31 28 25 22 19
26 33 91 100 100 100 100 100 100 100 100 100 97 100 96 96 100 100 100 100 91 84 79 76 71 66 67 70 68 61 57 56 52 47 40 36 32 29 25 21 18 15 13
77 35 42 100 100 100 100 100 100 100 100 100 99 100 100 100 100 100 93 86 85 84 77 73 70 70 69 65 62 59 56 51 46 42 38 34 30 27 21 18 16 16 15
89 84 40 80 100 100 100 100 100 100 100 100 100 100 100 100 100 100 90 92 85 80 76 74 72 71 70 68 67 63 57 52 47 42 37 31 26 23 21 21 23 24 25
45 44 45 62 97 100 100 100 100 100 100 100 100 100 100 100 100 100 98 94 88 84 82 78 79 78 75 72 67 61 56 49 43 36 30 28 26 30 32 32 32 30 28
100 100 100 86 100 100 100 96 99 100 100 100 100 100 99 100 100 100 99 98 94 91 88 88 86 80 73 67 63 57 49 40 35 34 36 38 40 39 37 34 30 23 17
97 100 86 86 99 100 100 100 100 100 100 100 100 100 100 100 100 100 99 99 95 94 93 89 82 74 67 62 53 44 40 40 43 46 47 43 39 34 22 13 11 11 11
79 80 66 92 100 100 100 100 100 100 100 100 100 100 100 100 100 100 100 95 96 94 88 83 78 72 61 52 47 48 49 52 50 47 42 32 17 11 13 14 15 16 22
90 97 100 100 97 97 100 100 100 100 100 100 100 100 100 100 100 100 100 97 96 92 88 83 71 59 55 57 60 61 56 52 51 34 16 12 14 16 17 21 29 29 23
100 99 100 99 100 100 100 100 100 100 100 100 99 99 100 100 100 100 100 99 95 89 77 68 66 66 67 68 64 61 59 36 16 14 14 17 18 20 30 32 27 25 25

GFSGL_500_rhum_153.txt.gz
RH
37 14 10 10 8 20 31 55 58 61 68 63 74 39 29 65 88 93 90 91 98 83 58 56 50 60 66 95 98 44 34 26 28 29 21 22 14 10 12 16 18 17 16
15 11 12 9 17 34 46 72 76 71 46 34 30 18 13 12 54 90 95 98 99 100 100 87 47 62 92 100 100 95 52 51 32 30 30 33 28 14 10 8 9 10 11
12 13 11 23 42 37 69 85 88 57 40 30 19 19 12 10 10 38 58 97 100 100 100 100 56 49 71 100 100 100 69 76 43 25 26 26 26 23 17 15 11 10 10
18 16 20 44 39 46 76 91 95 59 63 50 33 26 20 10 9 9 21 31 98 100 100 100 99 62 41 44 96 100 100 98 89 92 83 60 35 28 30 30 28 27 21
18 23 36 50 33 49 83 99 97 58 43 22 22 27 28 19 10 10 9 10 14 31 69 100 100 100 100 98 82 60 88 100 100 100 100 100 99 90 44 28 22 22 22
26 40 59 50 34 75 98 100 89 32 35 32 21 23 28 34 20 11 11 12 10 9 10 21 98 100 100 100 100 100 100 100 100 64 43 48 88 100 100 84 29 16 14
30 42 56 37 47 97 100 100 76 38 44 72 47 41 26 74 33 24 12 12 12 12 10 9 9 23 71 80 95 100 100 100 100 100 100 81 43 36 36 37 48 50 34
32 64 50 37 69 100 100 100 97 75 61 86 52 30 27 68 57 38 28 19 12 12 12 14 12 10 8 8 7 7 8 11 30 58 85 100 100 100 99 85 60 45 39
33 70 48 48 77 100 100 100 99 94 79 92 53 29 24 43 82 39 40 33 22 15 10 10 11 13 14 13 9 8 8 8 8 7 7 7 10 28 48 63 91 96 99
36 78 47 47 75 100 100 100 98 97 100 100 75 44 68 34 71 72 51 32 36 34 21 12 10 10 10 11 12 14 16 15 14 13 12 12 11 10 8 7 6 7 10
64 92 74 42 58 98 100 100 100 99 100 100 92 71 78 72 45 60 89 82 30 27 39 34 24 15 10 9 9 9 10 13 16 16 18 21 21 19 16 14 13 13 11
94 97 97 63 40 61 90 100 100 100 99 100 100 100 100 97 88 63 59 70 54 36 29 43 43 42 35 24 18 14 11 10 12 17 19 19 19 19 19 18 17 16 16
100 100 98 99 97 74 41 84 100 100 100 100 100 100 100 100 100 96 76 64 81 52 44 42 55 70 69 68 62 49 34 23 18 16 15 18 20 21 22 23 22 21 20
94 96 99 82 39 25 25 29 85 100 100 100 100 100 100 100 98 90 72 56 59 80 70 58 52 55 62 69 72 75 74 70 59 33 24 24 26 29 29 28 29 28 27
69 47 17 10 11 12 12 19 44 87 100 100 100 100 100 100 100 100 100 99 93 93 95 94 92 89 86 86 87 78 64 59 63 66 65 60 50 43 40 37 35 35 36
9 11 12 14 19 23 27 26 43 95 100 100 100 100 100 100 100 100 100 100 100 100 100 99 100 98 92 81 74 67 60 56 58 62 67 64 56 50 45 41 38 38 38
8 10 15 27 31 29 30 42 53 54 100 100 100 100 100 100 100 100 100 100 100 100 100 99 97 87 75 68 64 58 56 66 70 69 63 55 48 45 42 40 36 34 32
10 23 27 28 37 49 54 46 53 74 74 68 96 100 100 100 100 100 100 100 100 100 100 96 83 74 72 71 65 62 75 81 75 68 62 58 54 50 48 47 45 41 35
17 28 36 45 60 74 87 72 54 59 69 78 68 66 83 99 98 100 100 100 100 100 95 88 88 89 84 77 75 81 93 87 81 76 74 69 63 56 50 47 43 41 38
26 34 36 40 61 81 86 94 100 98 93 88 86 79 70 93 94 100 100 100 98 95 94 91 89 87 87 89 93 99 100 98 92 82 74 67 62 55 48 44 42 38 35
24 32 30 31 53 75 82 71 77 94 100 100 100 98 98 100 100 99 100 100 97 90 87 89 93 99 97 98 99 98 99 98 90 78 70 65 61 56 52 48 44 38 31
18 26 30 36 49 78 79 52 58 73 79 97 100 98 91 92 100 100 86 86 98 100 100 100 99 100 98 100 100 100 100 96 88 80 74 69 62 54 46 38 32 30 30
21 26 29 36 44 60 82 92 80 90 89 87 94 99 100 89 85 94 99 100 100 100 100 100 100 100 100 100 100 98 96 92 86 77 66 56 47 41 38 38 41 41 34
16 22 27 37 50 64 77 94 100 100 100 100 100 100 100 100 100 100 100 100 100 100 100 100 100 100 100 100 98 99 95 81 68 59 50 47 46 48 49 47 36 18 12
12 15 19 29 49 69 88 100 100 100 100 100 100 100 100 100 100 100 100 100 100 100 100 100 100 100 100 99 95 86 72 63 56 52 56 59 56 52 37 18 15 17 18
12 13 16 20 38 60 73 88 100 100 100 100 100 100 100 100 100 100 100 100 100 100 100 100 100 100 96 91 88 80 74 69 70 72 66 61 41 21 19 21 21 22 22

GFSGL_500_rhum_159.txt.gz
RH
100 98 90 92 76 70 42 24 18 13 9 22 29 45 75 56 52 44 15 9 25 26 75 94 75 46 39 70 72 87 94 99 98 69 73 47 27 27 32 41 48 54 46
96 97 94 85 81 51 25 17 16 10 18 35 34 62 85 62 33 39 35 11 14 10 46 100 96 92 56 59 71 79 89 100 100 94 88 53 69 29 100 79 50 98 99
99 100 95 89 65 29 17 18 10 13 36 43 40 77 93 60 23 24 60 20 12 13 12 83 100 89 93 77 78 84 100 87 88 81 66 53 33 30 49 95 73 100 100
100 97 93 69 40 19 20 12 14 22 45 38 53 85 98 57 29 23 42 74 16 13 15 16 41 99 100 99 100 100 93 94 97 95 78 47 44 42 76 86 100 100 85
100 99 65 45 21 21 12 9 20 25 47 37 75 94 100 52 34 53 47 75 57 23 13 15 17 25 98 100 100 100 100 100 100 100 99 98 78 48 46 54 76 86 100
73 52 39 21 21 11 11 14 22 29 48 52 91 99 100 44 37 71 88 54 92 45 32 14 13 15 17 37 89 100 100 100 100 100 100 100 100 79 58 50 44 43 32
45 40 27 17 12 11 12 11 19 46 52 69 96 100 100 65 48 62 97 40 44 84 44 33 23 12 13 15 16 17 60 98 100 100 100 100 100 100 100 100 93 62 43
39 34 19 13 11 12 9 8 22 72 54 81 99 100 100 100 92 82 94 96 39 52 91 79 47 30 24 15 14 14 18 15 29 69 98 100 100 100 100 100 100 100 100
34 22 14 10 10 9 8 15 60 93 49 61 100 100 100 100 100 100 98 100 99 83 67 84 89 62 28 32 30 18 12 13 16 17 14 17 30 71 100 100 98 88 72
25 18 14 8 9 8 25 66 98 100 69 46 83 100 98 99 100 100 100 100 100 100 96 83 76 94 82 45 36 54 50 32 20 15 15 20 20 16 13 12 15 36 92
26 32 16 7 7 33 69 95 100 100 100 99 86 49 68 99 100 100 100 100 100 100 100 100 99 93 84 91 81 60 49 51 59 52 29 17 15 17 22 24 23 19 16
29 19 7 8 44 52 63 83 91 91 81 60 29 39 64 57 92 100 100 100 100 100 100 99 99 100 97 97 84 71 73 70 60 54 57 62 61 34 17 16 18 20 21
20 8 9 37 15 27 32 35 25 12 8 8 9 10 13 20 42 82 100 100 100 100 100 100 100 98 99 100 98 81 71 72 76 78 83 82 74 68 63 52 32 18 16
11 8 34 16 9 8 7 7 7 8 9 10 14 16 18 19 23 38 88 99 99 100 100 100 100 100 98 94 91 87 81 77 72 65 64 66 67 64 59 59 60 60 54
9 16 43 9 7 7 6 7 8 8 11 17 27 32 34 37 36 39 47 76 97 99 100 100 100 99 99 98 94 88 80 74 71 70 69 69 64 60 55 50 48 46 49
12 53 24 9 8 7 7 7 9 11 16 22 30 40 45 48 54 57 57 66 68 69 76 92 94 95 94 93 92 87 80 76 76 75 72 68 66 64 60 56 54 49 46
48 46 10 10 10 9 8 9 9 11 19 28 32 41 40 42 45 57 69 67 54 67 73 74 79 79 74 84 85 81 79 80 81 79 75 73 72 70 69 67 64 60 59
51 10 12 13 12 12 11 10 11 16 22 25 27 32 43 56 50 56 64 84 92 90 90 91 79 66 62 64 75 76 73 76 77 76 81 84 85 85 83 78 75 73 73
22 10 13 15 15 13 12 11 11 16 24 28 28 29 43 54 66 61 56 55 79 88 86 93 87 83 75 96 98 82 77 88 92 88 90 92 92 93 90 88 87 86 87
12 10 12 16 17 16 16 14 14 16 22 28 29 37 45 51 73 76 68 69 78 76 71 79 77 66 77 76 84 87 85 87 90 89 92 90 89 89 86 86 88 90 90
10 11 14 17 19 22 26 24 15 18 24 32 35 41 50 61 75 97 96 84 95 98 98 93 98 100 98 93 98 95 94 92 89 89 90 91 92 92 93 95 97 97 98
12 12 14 17 20 35 42 32 19 20 26 31 37 49 60 73 94 100 100 100 100 100 100 100 100 100 100 96 90 86 85 86 89 91 92 92 93 94 94 94 92 87 80
13 12 13 17 24 44 43 36 31 24 22 27 33 43 56 81 100 100 100 100 100 100 100 98 92 90 88 88 88 90 92 94 95 96 97 98 99 100 96 87 80 72 64
12 13 16 29 63 62 51 48 40 37 32 27 30 39 55 70 93 100 100 100 100 100 99 99 100 97 98 95 94 95 96 97 98 96 94 92 87 80 73 68 66 66 64
15 16 41 71 76 66 63 66 61 52 43 37 38 40 53 73 91 100 100 100 100 100 100 100 100 99 100 100 100 100 98 95 91 88 87 85 83 79 74 72 71 70 70
21 52 74 84 78 74 76 75 68 60 54 51 54 60 66 73 81 94 99 99 100 100 100 100 100 100 100 100 100 98 98 96 92 87 85 84 83 84 82 79 77 74 70

GFSGL_500_rhum_165.txt.gz
RH
92 98 99 98 100 100 92 96 100 74 62 59 50 36 22 16 11 12 30 36 84 64 25 29 56 12 14 64 84 89 97 95 97 100 100 98 100 100 96 100 59 100 100
97 99 98 100 100 96 99 98 86 63 62 52 33 22 15 11 13 20 39 49 98 56 27 47 66 38 12 24 96 94 98 100 96 100 96 94 100 100 100 64 85 87 91
99 98 100 100 100 100 95 80 59 65 46 32 23 15 10 10 14 32 47 80 100 56 41 66 72 70 27 14 54 96 98 100 98 92 91 94 93 100 100 95 100 100 60
97 100 100 100 99 93 84 66 67 37 31 25 16 11 9 9 14 44 55 92 100 61 53 63 61 67 73 35 19 52 81 100 100 100 97 84 70 80 97 98 95 100 84
100 98 100 98 95 90 73 58 36 32 27 19 14 10 8 9 22 55 61 96 100 78 44 57 84 50 58 81 48 28 29 53 98 100 100 100 94 68 62 69 78 87 100
100 99 96 98 97 85 51 35 31 27 22 17 12 9 8 21 43 59 66 97 100 100 63 78 96 83 65 73 82 47 32 26 33 89 100 100 100 97 83 55 55 86 91
97 97 100 98 85 49 38 34 30 24 20 15 10 8 11 47 66 53 61 98 100 100 99 96 96 98 99 97 92 82 62 34 39 27 34 94 100 100 100 100 92 84 60
97 93 90 79 51 47 41 31 25 27 28 15 8 9 39 68 76 75 62 72 96 100 97 97 96 97 96 95 99 99 84 85 54 46 49 29 37 93 100 100 100 100 99
98 100 82 60 58 48 36 26 27 30 26 10 8 28 48 73 75 79 75 72 70 62 79 94 97 100 96 100 96 94 97 91 88 84 73 52 56 40 31 52 94 100 100
93 83 73 66 57 43 33 30 31 30 17 9 22 26 28 42 42 23 9 7 8 19 56 69 83 89 94 94 96 96 92 90 92 95 94 86 75 51 50 47 31 30 54
100 80 72 60 46 47 36 34 36 24 12 20 14 12 10 10 8 8 8 9 8 9 11 15 44 75 87 85 82 83 85 87 86 84 87 87 89 77 70 62 55 48 38
86 80 67 51 42 43 41 48 37 17 14 24 10 10 7 7 8 9 9 10 11 14 14 17 18 18 42 69 87 83 77 73 78 87 86 82 80 82 84 77 65 64 65
98 81 56 41 26 38 52 36 19 12 24 19 8 8 8 8 9 10 11 13 15 18 20 19 21 25 25 22 24 45 66 83 82 78 79 82 83 82 79 76 75 73 69
98 79 52 25 43 40 52 26 16 15 33 12 7 8 8 8 9 11 13 15 18 22 25 26 27 29 29 31 33 32 29 28 40 66 73 75 77 78 76 73 70 69 69
93 45 27 38 40 31 30 35 24 32 41 9 8 9 9 10 9 12 14 16 18 20 21 27 32 32 33 32 28 30 35 41 40 44 50 47 46 54 61 63 66 67 67
81 49 34 36 35 26 35 31 20 44 24 10 10 10 11 12 13 15 18 17 17 18 18 19 25 35 42 40 38 38 36 38 43 54 59 53 39 41 35 40 54 61 61
47 39 39 40 31 26 27 20 33 41 15 12 13 13 13 14 16 17 19 19 21 22 22 23 24 30 39 53 60 50 46 46 42 42 47 48 50 50 49 48 47 61 64
56 57 55 51 43 33 22 27 48 32 13 14 16 16 16 18 22 24 21 22 22 24 26 28 30 33 39 42 60 78 80 64 60 60 55 40 37 41 44 56 61 57 58
69 67 57 35 33 26 19 38 53 29 12 14 15 17 18 21 33 38 33 26 27 29 32 33 36 42 49 61 73 85 94 95 94 93 90 88 81 71 71 66 64 64 62
68 42 40 37 26 20 23 46 54 26 12 12 15 17 19 26 41 44 40 33 31 32 33 38 44 56 70 84 91 89 90 96 98 96 93 90 88 83 79 74 71 70 70
43 47 48 53 38 21 25 57 60 25 14 14 15 17 19 28 55 51 40 36 34 37 41 43 49 63 74 82 84 92 95 99 100 100 98 95 94 89 83 80 77 74 73
63 64 56 57 45 51 79 75 41 19 16 15 15 18 28 68 71 61 52 49 50 52 52 51 50 57 70 83 92 99 100 100 100 100 99 97 100 93 86 82 80 76 71
73 88 82 72 75 87 95 62 21 18 17 17 20 37 72 79 78 72 72 68 63 61 59 59 64 74 85 99 100 100 100 100 100 100 97 96 91 82 79 77 75 72 69
97 98 97 90 92 100 71 21 19 20 22 28 53 80 90 83 75 76 74 72 71 69 69 66 66 70 77 85 90 100 100 100 100 100 95 92 90 88 81 74 71 69 67
94 93 95 100 83 32 21 23 25 30 53 87 98 86 76 76 78 79 75 74 75 72 70 76 84 90 95 100 100 100 100 100 100 97 93 88 84 80 75 73 73 72 70
99 98 94 46 26 25 26 37 67 97 97 81 74 67 62 60 63 64 64 62 64 72 84 91 96 99 99 99 96 94 92 94 93 91 88 86 82 79 78 76 73 69 67

GFSGL_500_rhum_168.txt.gz
RH
99 100 100 99 89 86 100 100 98 100 97 99 88 44 26 18 17 15 15 16 10 14 39 72 91 49 55 69 38 13 82 95 95 89 85 89 96 87 91 100 91 95 100
98 100 99 91 88 100 100 99 100 99 99 95 54 28 21 18 15 16 18 9 12 32 48 87 86 47 59 70 60 16 37 93 96 98 88 86 87 89 71 96 100 72 97
98 100 91 97 100 100 100 99 98 99 95 58 32 25 22 16 16 19 11 10 20 48 60 87 85 52 57 69 63 56 23 61 90 98 98 94 85 97 87 89 91 88 39
100 99 99 98 100 100 100 100 100 96 68 37 30 24 18 15 21 15 8 26 48 52 67 88 91 56 64 88 70 75 64 28 55 86 100 100 94 82 91 99 96 93 73
98 98 99 100 100 100 100 100 100 80 43 32 27 20 17 21 20 8 23 44 57 46 68 88 91 78 81 96 89 84 83 65 31 51 76 95 100 98 92 65 98 94 86
98 100 100 100 100 100 100 100 85 55 39 33 22 18 21 25 10 13 36 57 59 42 54 85 90 94 94 91 92 94 95 84 73 36 41 50 85 100 100 100 81 54 59
100 100 100 100 100 99 96 87 69 49 38 27 19 20 27 15 10 24 45 61 55 58 56 52 69 86 90 91 90 91 92 98 89 78 53 44 45 50 91 100 100 100 100
95 100 100 100 94 95 92 82 56 44 38 24 23 27 25 15 16 26 38 36 22 10 7 10 38 56 62 80 88 90 91 92 88 92 83 77 62 46 41 57 90 100 99
100 98 95 98 88 95 87 62 50 48 32 28 29 32 25 15 17 13 12 9 8 8 9 8 8 9 26 53 74 83 85 86 86 84 82 82 79 77 62 48 39 44 80
88 93 100 100 100 100 75 58 59 40 37 34 39 32 20 17 13 9 9 9 10 11 10 8 9 8 9 11 13 24 54 72 78 79 79 78 81 81 79 79 68 50 42
100 98 100 99 100 81 66 63 42 28 35 41 46 26 17 19 12 9 8 10 12 12 11 10 11 11 10 11 14 16 16 19 26 37 42 59 69 76 81 82 80 81 71
98 92 100 100 100 89 72 43 26 27 36 46 31 21 17 23 10 8 8 10 12 12 11 11 11 14 16 17 16 16 15 16 17 18 18 28 40 48 63 69 74 76 76
100 100 100 100 99 94 69 42 23 26 41 42 30 26 23 27 8 8 9 10 12 12 12 12 13 13 14 16 19 22 23 21 19 18 18 17 18 18 28 46 60 62 66
100 98 100 100 100 93 66 25 25 39 29 34 36 23 36 33 8 8 9 11 12 14 14 15 15 16 16 15 15 17 21 26 28 29 28 23 21 21 23 27 27 32 49
99 100 96 100 100 77 37 24 28 28 32 31 30 22 41 26 9 9 10 13 14 17 18 17 17 17 17 17 17 18 19 19 24 33 35 36 36 29 22 24 32 28 28
100 100 100 100 100 91 40 30 29 28 27 24 24 28 40 20 11 12 13 14 17 20 22 23 24 22 22 22 22 24 23 25 24 26 33 40 47 46 44 32 27 28 36
100 100 100 91 71 48 40 38 41 48 33 24 21 35 36 17 14 15 16 16 19 27 32 33 30 28 26 26 26 27 30 28 33 36 37 39 46 62 64 60 61 42 32
100 99 97 68 57 52 50 56 53 37 31 24 24 43 30 17 15 16 17 18 20 33 48 47 45 42 39 37 34 34 34 39 40 42 44 50 56 75 87 87 90 81 78
100 100 92 77 64 67 72 61 43 32 28 23 27 52 33 19 14 13 15 18 20 31 54 59 50 45 42 41 44 46 47 46 47 54 61 75 76 82 92 89 89 87 83
98 92 84 80 83 69 46 42 49 41 33 22 36 59 43 19 15 16 15 17 20 42 63 65 58 54 50 51 52 54 53 54 57 69 85 97 97 99 95 95 95 88 88
70 62 76 73 54 49 52 52 51 54 44 42 73 76 30 23 18 17 16 19 39 68 69 74 68 67 65 63 61 58 61 71 78 88 94 96 94 100 96 98 93 94 99
87 80 82 84 70 62 74 81 76 65 61 81 94 33 24 19 18 20 25 45 68 83 86 74 73 71 68 65 65 67 66 65 77 87 97 100 100 100 100 100 100 100 95
87 86 78 80 83 71 71 87 86 90 92 99 78 24 21 21 24 36 60 88 96 80 75 69 68 69 71 72 69 68 73 80 90 95 99 100 100 100 100 100 98 92 83
93 86 84 82 100 100 96 97 100 100 93 46 22 26 27 34 63 97 97 80 71 62 57 58 58 56 55 58 72 85 85 88 93 95 100 100 100 99 92 88 84 81 78
99 89 98 100 98 99 100 99 88 40 27 28 30 47 80 99 90 74 67 51 45 44 43 37 43 56 70 78 83 83 89 94 95 95 93 94 94 92 87 83 82 79 77
100 100 100 100 100 100 100 71 35 30 36 62 94 98 82 59 46 39 38 31 28 32 41 51 73 85 83 84 90 92 92 91 90 88 90 93 93 92 90 89 87 83 78